| time (UTC) | temp F | wind direction | speed MPH | gust MPH | rain 1hr in | rain 24hr in | rain mn in | humidity % | barometer mb |
| 20260831144537 | 90 | 242 | 0.0 | 0.0 | 0.00 | 0.00 | 0.00 | 49 | 1012.0 |
| 20260831143036 | 89 | 256 | 0.0 | 0.0 | 0.00 | 0.00 | 0.00 | 49 | 1011.9 |
| 20260831141532 | 88 | 142 | 0.0 | 0.0 | 0.00 | 0.00 | 0.00 | 51 | 1011.9 |
| 20260831140029 | 87 | 88 | 0.0 | 0.0 | 0.00 | 0.00 | 0.00 | 51 | 1012.0 |
| 20260831134531 | 86 | 224 | 0.0 | 0.0 | 0.00 | 0.00 | 0.00 | 51 | 1012.0 |
| 20260831133026 | 85 | 189 | 0.0 | 0.0 | 0.00 | 0.00 | 0.00 | 53 | 1011.9 |
| 20260831131542 | 84 | 229 | 0.0 | 0.0 | 0.00 | 0.00 | 0.00 | 53 | 1011.8 |
| 20260831130036 | 82 | 229 | 0.0 | 0.0 | 0.00 | 0.00 | 0.00 | 54 | 1011.6 |
| 20260831124519 | 81 | 230 | 0.0 | 0.0 | 0.00 | 0.00 | 0.00 | 55 | 1011.5 |
| 20260831123022 | 81 | 297 | 0.0 | 0.0 | 0.00 | 0.00 | 0.00 | 55 | 1011.2 |
| 20260831121518 | 81 | 278 | 0.0 | 0.0 | 0.00 | 0.00 | 0.00 | 55 | 1011.1 |
| 20260831120012 | 81 | 133 | 0.0 | 0.0 | 0.00 | 0.00 | 0.00 | 54 | 1010.8 |
| 20260831114508 | 81 | 222 | 0.0 | 0.0 | 0.00 | 0.00 | 0.00 | 54 | 1010.6 |
| 20260831113005 | 81 | 152 | 0.0 | 0.0 | 0.00 | 0.00 | 0.00 | 53 | 1010.5 |
| 20260831111503 | 81 | 149 | 0.0 | 0.0 | 0.00 | 0.00 | 0.00 | 52 | 1010.3 |
| 20260831110100 | 82 | 153 | 0.0 | 0.0 | 0.00 | 0.00 | 0.00 | 52 | 1009.9 |
| 20260831104559 | 82 | 144 | 0.0 | 0.0 | 0.00 | 0.00 | 0.00 | 52 | 1009.9 |
| 20260831103057 | 82 | 153 | 0.0 | 0.0 | 0.00 | 0.00 | 0.00 | 51 | 1009.8 |
| 20260831101555 | 82 | 134 | 0.0 | 0.0 | 0.00 | 0.00 | 0.00 | 50 | 1009.8 |
| 20260831100106 | 83 | 55 | 0.0 | 0.0 | 0.00 | 0.00 | 0.00 | 49 | 1009.7 |
| 20260831094551 | 84 | 326 | 0.0 | 0.0 | 0.00 | 0.00 | 0.00 | 49 | 1009.6 |
| 20260831093056 | 84 | 240 | 0.0 | 0.0 | 0.00 | 0.00 | 0.00 | 48 | 1009.5 |
| 20260831091546 | 84 | 40 | 0.0 | 0.0 | 0.00 | 0.00 | 0.00 | 47 | 1009.3 |
| 20260831090052 | 85 | 222 | 0.0 | 0.0 | 0.00 | 0.00 | 0.00 | 47 | 1009.2 |
| 20260831084542 | 85 | 128 | 0.0 | 0.0 | 0.00 | 0.00 | 0.00 | 47 | 1009.2 |
| 20260831083055 | 85 | 269 | 0.0 | 1.0 | 0.00 | 0.00 | 0.00 | 46 | 1009.2 |
| 20260831081548 | 86 | 318 | 0.0 | 0.0 | 0.00 | 0.00 | 0.00 | 46 | 1009.2 |
| 20260831080104 | 86 | 159 | 0.0 | 0.0 | 0.00 | 0.00 | 0.00 | 45 | 1009.3 |
| 20260831074536 | 86 | 207 | 0.0 | 0.0 | 0.00 | 0.00 | 0.00 | 44 | 1009.2 |
| 20260831073035 | 87 | 119 | 0.0 | 0.0 | 0.00 | 0.00 | 0.00 | 43 | 1009.2 |
| 20260831071543 | 87 | 139 | 0.0 | 0.0 | 0.00 | 0.00 | 0.00 | 43 | 1009.2 |
| 20260831070035 | 87 | 155 | 0.0 | 0.0 | 0.00 | 0.00 | 0.00 | 42 | 1009.1 |
| 20260831064529 | 87 | 139 | 0.0 | 0.0 | 0.00 | 0.00 | 0.00 | 42 | 1009.1 |
| 20260831063027 | 88 | 119 | 0.0 | 0.0 | 0.00 | 0.00 | 0.00 | 42 | 1009.0 |
| 20260831061526 | 88 | 221 | 0.0 | 0.0 | 0.00 | 0.00 | 0.00 | 41 | 1009.1 |
| 20260831060024 | 88 | 111 | 0.0 | 0.0 | 0.00 | 0.00 | 0.00 | 41 | 1009.1 |
| 20260831054522 | 88 | 44 | 0.0 | 0.0 | 0.00 | 0.00 | 0.00 | 42 | 1008.9 |
| 20260831053020 | 89 | 250 | 0.0 | 0.0 | 0.00 | 0.00 | 0.00 | 41 | 1008.8 |
| 20260831051520 | 89 | 19 | 0.0 | 0.0 | 0.00 | 0.00 | 0.00 | 41 | 1008.7 |
| 20260831050016 | 89 | 157 | 0.0 | 0.0 | 0.00 | 0.00 | 0.00 | 41 | 1008.7 |
| 20260831044517 | 89 | 150 | 0.0 | 0.0 | 0.00 | 0.00 | 0.00 | 41 | 1008.7 |
| 20260831043019 | 89 | 140 | 0.0 | 0.0 | 0.00 | 0.00 | 0.00 | 41 | 1008.6 |
| 20260831041519 | 90 | 135 | 0.0 | 0.0 | 0.00 | 0.00 | 0.00 | 40 | 1008.7 |
| 20260831040019 | 91 | 153 | 0.0 | 0.0 | 0.00 | 0.00 | 0.00 | 39 | 1008.6 |
| 20260831034513 | 91 | 145 | 0.0 | 0.0 | 0.00 | 0.00 | 0.00 | 38 | 1008.5 |
| 20260831033019 | 91 | 130 | 0.0 | 0.0 | 0.00 | 0.00 | 0.00 | 38 | 1008.4 |
| 20260831031512 | 92 | 144 | 0.0 | 0.0 | 0.00 | 0.00 | 0.00 | 38 | 1008.4 |
| 20260831030011 | 92 | 154 | 0.0 | 0.0 | 0.00 | 0.00 | 0.00 | 38 | 1008.2 |
| 20260831024513 | 93 | 132 | 0.0 | 0.0 | 0.00 | 0.00 | 0.00 | 37 | 1008.1 |
| 20260831023014 | 93 | 159 | 0.0 | 0.0 | 0.00 | 0.00 | 0.00 | 36 | 1007.8 |
| 20260831021515 | 94 | 181 | 0.0 | 0.0 | 0.00 | 0.00 | 0.00 | 35 | 1007.5 |
| 20260831020009 | 95 | 117 | 0.0 | 0.0 | 0.00 | 0.00 | 0.00 | 34 | 1007.3 |
| 20260831014508 | 95 | 119 | 0.0 | 0.0 | 0.00 | 0.00 | 0.00 | 33 | 1007.0 |
| 20260831013008 | 96 | 122 | 0.0 | 0.0 | 0.00 | 0.00 | 0.00 | 33 | 1006.9 |
| 20260831011509 | 97 | 160 | 0.0 | 0.0 | 0.00 | 0.00 | 0.00 | 32 | 1006.7 |
| 20260831010007 | 98 | 123 | 0.0 | 0.0 | 0.00 | 0.00 | 0.00 | 31 | 1006.7 |
| 20260831004507 | 98 | 132 | 0.0 | 0.0 | 0.00 | 0.00 | 0.00 | 30 | 1006.6 |
| 20260831003007 | 99 | 171 | 0.0 | 0.0 | 0.00 | 0.00 | 0.00 | 29 | 1006.6 |
| 20260831001508 | 100 | 139 | 0.0 | 0.0 | 0.00 | 0.00 | 0.00 | 29 | 1006.5 |
| 20260831000006 | 100 | 337 | 0.0 | 0.0 | 0.00 | 0.00 | 0.00 | 29 | 1006.6 |
| 20260830234504 | 101 | 148 | 0.0 | 0.0 | 0.00 | 0.00 | 0.00 | 28 | 1006.5 |
| 20260830233004 | 101 | 173 | 0.0 | 0.0 | 0.00 | 0.00 | 0.00 | 28 | 1006.6 |
| 20260830231503 | 102 | 156 | 0.0 | 0.0 | 0.00 | 0.00 | 0.00 | 28 | 1006.6 |
| 20260830230004 | 102 | 134 | 0.0 | 0.0 | 0.00 | 0.00 | 0.00 | 27 | 1006.6 |
| 20260830224503 | 102 | 240 | 0.0 | 1.0 | 0.00 | 0.00 | 0.00 | 28 | 1006.4 |
| 20260830223006 | 102 | 146 | 0.0 | 0.0 | 0.00 | 0.00 | 0.00 | 27 | 1006.5 |
| 20260830221503 | 103 | 194 | 0.0 | 0.0 | 0.00 | 0.00 | 0.00 | 27 | 1006.5 |
| 20260830220100 | 103 | 140 | 0.0 | 1.0 | 0.00 | 0.00 | 0.00 | 27 | 1006.5 |
| 20260830214602 | 103 | 121 | 0.0 | 0.0 | 0.00 | 0.00 | 0.00 | 27 | 1006.6 |
| 20260830213107 | 103 | 228 | 0.0 | 0.0 | 0.00 | 0.00 | 0.00 | 27 | 1006.9 |
| 20260830211559 | 104 | 146 | 0.0 | 0.0 | 0.00 | 0.00 | 0.00 | 27 | 1006.9 |
| 20260830210054 | 104 | 220 | 0.0 | 0.0 | 0.00 | 0.00 | 0.00 | 27 | 1007.1 |
| 20260830204549 | 103 | 138 | 0.0 | 0.0 | 0.00 | 0.00 | 0.00 | 29 | 1007.4 |
| 20260830203046 | 103 | 244 | 0.0 | 0.0 | 0.00 | 0.00 | 0.00 | 28 | 1007.6 |
| 20260830201541 | 103 | 257 | 0.0 | 0.0 | 0.00 | 0.00 | 0.00 | 28 | 1007.9 |
| 20260830200037 | 103 | 298 | 0.0 | 0.0 | 0.00 | 0.00 | 0.00 | 29 | 1008.0 |
| 20260830194535 | 102 | 232 | 0.0 | 1.0 | 0.00 | 0.00 | 0.00 | 29 | 1008.2 |
| 20260830193034 | 102 | 231 | 0.0 | 0.0 | 0.00 | 0.00 | 0.00 | 30 | 1008.3 |
| 20260830191534 | 102 | 150 | 0.0 | 0.0 | 0.00 | 0.00 | 0.00 | 30 | 1008.4 |
| 20260830190025 | 102 | 197 | 0.0 | 1.0 | 0.00 | 0.00 | 0.00 | 31 | 1008.5 |
| 20260830184534 | 101 | 251 | 0.0 | 0.0 | 0.00 | 0.00 | 0.00 | 31 | 1008.7 |
| 20260830183020 | 100 | 44 | 0.0 | 1.0 | 0.00 | 0.00 | 0.00 | 34 | 1008.9 |
| 20260830181516 | 100 | 223 | 0.0 | 0.0 | 0.00 | 0.00 | 0.00 | 32 | 1009.2 |
| 20260830180017 | 100 | 227 | 0.0 | 0.0 | 0.00 | 0.00 | 0.00 | 33 | 1009.2 |
| 20260830174517 | 99 | 213 | 0.0 | 1.0 | 0.00 | 0.00 | 0.00 | 34 | 1009.4 |
| 20260830173011 | 99 | 249 | 0.0 | 0.0 | 0.00 | 0.00 | 0.00 | 35 | 1009.7 |
| 20260830171509 | 98 | 238 | 0.0 | 0.0 | 0.00 | 0.00 | 0.00 | 36 | 1009.8 |
| 20260830170007 | 98 | 166 | 0.0 | 0.0 | 0.00 | 0.00 | 0.00 | 36 | 1010.0 |
| 20260830164504 | 98 | 303 | 0.0 | 0.0 | 0.00 | 0.00 | 0.00 | 38 | 1010.2 |
| 20260830163002 | 97 | 228 | 0.0 | 0.0 | 0.00 | 0.00 | 0.00 | 39 | 1010.3 |
| 20260830161619 | 96 | 128 | 0.0 | 1.0 | 0.00 | 0.00 | 0.00 | 40 | 1010.3 |
| 20260830160055 | 95 | 282 | 0.0 | 0.0 | 0.00 | 0.00 | 0.00 | 41 | 1010.4 |
| 20260830154551 | 94 | 20 | 0.0 | 0.0 | 0.00 | 0.00 | 0.00 | 43 | 1010.4 |
| 20260830153048 | 92 | 129 | 0.0 | 0.0 | 0.00 | 0.00 | 0.00 | 45 | 1010.4 |
| 20260830151543 | 91 | 331 | 0.0 | 0.0 | 0.00 | 0.00 | 0.00 | 46 | 1010.5 |
| 20260830150108 | 89 | 265 | 0.0 | 1.0 | 0.00 | 0.00 | 0.00 | 48 | 1010.5 |